Time,TemperatureF,DewpointF,PressureIn,WindDirection,WindDirectionDegrees,WindSpeedMPH,WindSpeedGustMPH,Humidity,HourlyPrecipIn,Conditions,Clouds,dailyrainin,SoftwareType,DateUTC
2013-01-19 02:00:00,25.0,-99.9,-100.00,North,-999,-999.0,-999.0,-999,-99.99,,,0.00,,2013-01-19 09:00:00,
2013-01-19 02:53:00,25.0,-99.9,-100.00,North,-999,-999.0,-999.0,-999,-99.99,,,0.00,,2013-01-19 09:53:00,
2013-01-19 03:00:00,24.0,15.0,-100.00,SSW,192,2.0,6.0,67,-99.99,,,0.00,,2013-01-19 10:00:00,
2013-01-19 03:53:00,24.0,15.0,-100.00,SSW,192,2.0,6.0,67,-99.99,,,0.00,,2013-01-19 10:53:00,
2013-01-19 08:00:00,21.0,5.0,-100.00,SSE,166,0.0,2.0,50,-99.99,,,0.00,,2013-01-19 15:00:00,
2013-01-19 08:53:00,21.0,5.0,-100.00,SSE,166,0.0,2.0,50,-99.99,,,0.00,,2013-01-19 15:53:00,
2013-01-19 09:00:00,27.0,8.0,-100.00,SE,127,0.0,3.0,45,-99.99,,,-99.99,,2013-01-19 16:00:00,
2013-01-19 09:54:00,27.0,8.0,-100.00,SE,127,0.0,3.0,45,-99.99,,,-99.99,,2013-01-19 16:54:00,
2013-01-19 10:00:00,34.0,6.0,-100.00,SE,133,1.0,3.0,30,-99.99,,,0.00,,2013-01-19 17:00:00,
2013-01-19 10:55:00,34.0,6.0,-100.00,SE,133,1.0,3.0,30,-99.99,,,0.00,,2013-01-19 17:55:00,
2013-01-19 11:00:00,44.0,9.0,-100.00,SSE,150,1.0,2.0,23,-99.99,,,0.00,,2013-01-19 18:00:00,
2013-01-19 12:00:00,49.0,11.0,-100.00,WSW,247,1.0,3.0,21,-99.99,,,0.00,,2013-01-19 19:00:00,
2013-01-19 13:00:00,50.0,9.0,-100.00,West,271,1.0,4.0,19,-99.99,,,0.00,,2013-01-19 20:00:00,
2013-01-19 13:59:00,50.0,9.0,-100.00,West,271,1.0,4.0,19,-99.99,,,0.00,,2013-01-19 20:59:00,
2013-01-19 14:00:00,48.0,10.0,-100.00,WNW,297,1.0,3.0,21,-99.99,,,0.00,,2013-01-19 21:00:00,
2013-01-19 15:00:00,47.0,13.0,-100.00,WNW,288,1.0,3.0,25,-99.99,,,-99.99,,2013-01-19 22:00:00,
2013-01-19 15:58:00,47.0,13.0,-100.00,WNW,288,1.0,3.0,25,-99.99,,,-99.99,,2013-01-19 22:58:00,
2013-01-19 16:00:00,40.0,12.0,-100.00,SW,223,0.0,3.0,32,-99.99,,,0.00,,2013-01-19 23:00:00,
2013-01-19 17:00:00,35.0,7.0,-100.00,South,171,1.0,4.0,30,-99.99,,,0.00,,2013-01-20 00:00:00,
2013-01-19 17:57:00,35.0,7.0,-100.00,South,171,1.0,4.0,30,-99.99,,,0.00,,2013-01-20 00:57:00,
2013-01-19 18:00:00,29.0,8.0,-100.00,SE,134,0.0,3.0,40,-99.99,,,0.00,,2013-01-20 01:00:00,
2013-01-19 19:00:00,27.0,9.0,-100.00,SSE,167,0.0,1.0,47,-99.99,,,0.00,,2013-01-20 02:00:00,
2013-01-19 19:59:00,27.0,9.0,-100.00,SSE,167,0.0,1.0,47,-99.99,,,0.00,,2013-01-20 02:59:00,
2013-01-19 20:00:00,24.0,10.0,-100.00,SSE,159,0.0,1.0,53,-99.99,,,0.00,,2013-01-20 03:00:00,
2013-01-19 20:58:00,24.0,10.0,-100.00,SSE,159,0.0,1.0,53,-99.99,,,0.00,,2013-01-20 03:58:00,